• Join FlightAware (Why Join?)
  • Login
  • US Flag 
10:17PM EDT


 

Airport Tracker/Info


-or-


 

Live Flight TrackerFlight Track Log ✈ UAL623 ✈ 09-Jul-2013 ✈ KDCA - KORD

Flight Track Log - Related Links

Times and Time Zones

All times are in EDT time to prevent confusion due to time zone crossing. See the UAL623 flight status page for this flight to view local times or setup timezone preferences in your user account.

Time Position Orientation Groundspeed Altitude Reporting Facility
EDT Latitude Longitude Course Direction KTS MPH feet Rate Location/Type
06:34PM 38.8000 -77.0333 270° West 175 201 2,100  Level Potomac TRACON
06:35PM 38.7500 -77.0500 195° South 227 261 4,100 1,920 Climbing Potomac TRACON
06:36PM 38.7333 -77.1333 256° West 259 298 5,800 2,460 Climbing Potomac TRACON
06:37PM 38.8500 -77.5749 270° West  Level FlightAware Approximate
06:37PM 38.7167 -77.2333 258° West 266 306 9,100  Level Potomac TRACON
06:38PM 38.8501 -77.7103 270° West  Level FlightAware Approximate
06:39PM 38.8501 -77.8457 270° West  Level FlightAware Approximate
06:39PM 38.7997 -77.4108 301° West 291 335 15,000  Level Washington Center
06:40PM 38.8061 -77.5231 274° West 296 341 17,000 960 Climbing Washington Center
06:41PM 38.8128 -77.6350 274° West 308 354 17,000  Level Washington Center
06:42PM 38.8172 -77.7258 274° West 320 368 17,100 960 Climbing Washington Center
06:43PM 38.8294 -77.8594 277° West 325 374 19,000 1,920 Climbing Washington Center
06:44PM 38.8378 -77.9689 276° West 330 380 20,900 1,440 Climbing Washington Center
06:45PM 38.8456 -78.0944 275° West 336 387 22,000 1,200 Climbing Washington Center
06:46PM 38.8533 -78.2253 274° West 357 411 23,400 1,440 Climbing Washington Center
06:47PM 38.8522 -78.3611 269° West 379 436 25,000 1,440 Climbing Washington Center
06:48PM 38.8511 -78.5025 269° West 391 450 26,400 1,440 Climbing Washington Center
06:49PM 38.8494 -78.6492 269° West 402 463 27,900 1,560 Climbing Washington Center
06:50PM 38.8478 -78.7956 269° West 408 470 29,500 1,260 Climbing Washington Center
06:51PM 38.8439 -78.9447 268° West 418 481 30,500 1,260 Climbing Washington Center
06:52PM 38.8417 -79.0939 269° West 423 487 32,100 1,200 Climbing Washington Center
06:53PM 38.8392 -79.2456 269° West 423 487 33,000 540 Climbing Washington Center
06:54PM 38.8386 -79.4003 270° West 423 487 33,300 780 Climbing Washington Center
06:55PM 38.8347 -79.5839 269° West 453 521 34,600 1,200 Climbing Washington Center
06:56PM 38.8314 -79.7383 268° West 458 527 35,700 660 Climbing Washington Center
06:57PM 38.8281 -79.8928 268° West 458 527 36,000 120 Climbing Washington Center
06:59PM 38.8211 -80.0558 267° West 434 499 36,000  Level Indianapolis Center
07:00PM 38.8172 -80.2147 268° West 445 512 36,000  Level Indianapolis Center
07:01PM 38.8133 -80.3719 268° West 444 511 36,000  Level Indianapolis Center
07:02PM 38.8086 -80.5264 268° West 435 501 36,000 -60 Level Indianapolis Center
07:03PM 38.8036 -80.6819 268° West 435 501 35,900  Descending Indianapolis Center
07:04PM 38.7981 -80.8692 268° West 438 504 36,000  Climbing Indianapolis Center
07:05PM 38.7925 -81.0244 267° West 438 504 36,000  Level Indianapolis Center
07:06PM 38.7875 -81.1814 268° West 442 509 36,000  Level Indianapolis Center
07:07PM 38.7817 -81.3692 268° West 443 510 36,000  Level Indianapolis Center
07:08PM 38.7739 -81.5431 267° West 448 516 36,000  Level Indianapolis Center
07:09PM 38.7681 -81.7131 268° West 452 520 36,000  Level Indianapolis Center
07:10PM 38.7614 -81.8722 267° West 452 520 36,000  Level Indianapolis Center
07:11PM 38.7550 -82.0292 267° West 444 511 36,000  Level Indianapolis Center
07:12PM 38.7483 -82.1894 267° West 450 518 36,000  Level Indianapolis Center
07:13PM 38.7433 -82.3472 268° West 448 516 36,000  Level Indianapolis Center
07:14PM 38.7353 -82.5078 266° West 452 520 36,000  Level Indianapolis Center
07:15PM 38.7294 -82.6714 267° West 458 527 36,000  Level Indianapolis Center
07:16PM 38.7225 -82.8372 267° West 465 535 36,000  Level Indianapolis Center
07:17PM 38.7139 -83.0364 267° West 467 537 36,000 -60 Level Indianapolis Center
07:18PM 38.7067 -83.1811 266° West 459 528 35,900 -60 Descending Indianapolis Center
07:19PM 38.7389 -83.3394 285° West 456 525 35,900  Level Indianapolis Center
07:20PM 38.7900 -83.5158 290° West 450 518 35,900  Level Indianapolis Center
07:21PM 38.8333 -83.6686 290° West 451 519 35,900  Level Indianapolis Center
07:22PM 38.8756 -83.8214 290° West 450 518 35,900  Level Indianapolis Center
07:23PM 38.9192 -83.9758 290° West 453 521 36,000  Climbing Indianapolis Center
07:24PM 38.9622 -84.1333 289° West 462 532 35,900 -60 Descending Indianapolis Center
07:25PM 39.0056 -84.2883 290° West 458 527 35,900 -180 Level Indianapolis Center
07:26PM 39.0475 -84.4422 289° West 452 520 35,600 -660 Descending Indianapolis Center
07:28PM 39.1139 -84.5778 302° West 443 510 34,600 -1,500 Descending Indianapolis Center
07:29PM 39.2222 -84.6431 335° Northwest 423 487 32,600 -2,100 Descending Indianapolis Center
07:30PM 39.3381 -84.7042 338° Northwest 443 510 30,300 -2,100 Descending Indianapolis Center
07:31PM 39.4167 -84.8344 308° West 464 534 28,300 -1,140 Descending Indianapolis Center
07:32PM 39.4650 -84.9922 292° West 445 512 28,000 -180 Descending Indianapolis Center
07:33PM 39.5256 -85.1281 300° West 458 527 28,000  Level Indianapolis Center
07:34PM 39.6367 -85.2039 332° Northwest 456 525 28,000  Level Indianapolis Center
07:35PM 39.7756 -85.2808 337° Northwest 456 525 28,000  Level Indianapolis Center
07:36PM 39.8925 -85.3444 337° Northwest 458 527 28,000  Level Indianapolis Center
07:37PM 40.0117 -85.4036 339° North 460 529 28,000 -540 Level Indianapolis Center
07:38PM 40.1286 -85.4636 339° North 456 525 26,900 -1,140 Descending Indianapolis Center
07:39PM 40.2408 -85.5203 339° North 440 506 25,700 -1,140 Descending Indianapolis Center
07:40PM 40.3528 -85.5786 338° Northwest 436 502 24,600 -1,020 Descending Indianapolis Center
07:41PM 40.4722 -85.6867 325° Northwest 437 503 23,700 -780 Descending Indianapolis Center
07:42PM 40.5672 -85.7736 325° Northwest 425 489 23,000 -840 Descending Indianapolis Center
07:43PM 40.6597 -85.8589 325° Northwest 411 473 22,100 -960 Descending Indianapolis Center
07:44PM 40.7517 -85.9439 325° Northwest 406 467 21,100 -1,020 Descending Indianapolis Center
07:45PM 40.8464 -86.0317 325° Northwest 416 479 20,100 -960 Descending Indianapolis Center
07:46PM 40.9397 -86.1186 325° Northwest 414 476 19,200 -960 Descending Indianapolis Center
07:47PM 41.0331 -86.2042 325° Northwest 412 474 18,200 -1,020 Descending Indianapolis Center
07:48PM 41.1411 -86.3061 325° Northwest 401 461 17,200 -480 Descending Indianapolis Center
07:50PM 41.2636 -86.4214 325° Northwest 389 448 17,000 -180 Descending Chicago Center
07:51PM 41.3528 -86.5064 324° Northwest 393 452 16,800 -840 Descending Chicago Center
07:52PM 41.4414 -86.5892 325° Northwest 389 448 15,300 -1,620 Descending Chicago Center
07:53PM 41.5450 -86.6881 324° Northwest 382 440 13,500 -1,500 Descending Chicago Center
07:54PM 41.6194 -86.7586 325° Northwest 374 430 12,200 -780 Descending Chicago Center
07:55PM 41.7258 -86.8039 342° North 337 388 12,000 -120 Descending Chicago Center
07:56PM 41.8061 -86.8156 354° North 299 344 12,000  Level Chicago Center
07:57PM 41.8822 -86.8500 341° North 300 345 12,000 -600 Level Chicago Center
07:58PM 41.9078 -86.9442 290° West 279 321 10,800 -1,260 Descending Chicago Center
07:59PM 41.9275 -87.0419 285° West 276 318 9,400 -900 Descending Chicago Center
08:00PM 41.9517 -87.1536 286° West 264 304 9,000 -240 Descending Chicago Center
08:01PM 41.9697 -87.2397 286° West 244 281 9,000  Level Chicago Center
08:02PM 41.9839 -87.3144 284° West 215 247 9,000 -360 Level Chicago Center
08:03PM 41.9839 -87.3831 270° West 193 222 8,300 -900 Descending Chicago Center
08:04PM 41.9822 -87.4392 268° West 162 186 7,200 -1,020 Descending Chicago Center
08:05PM 41.9819 -87.5103 270° West 159 183 6,200 -960 Descending Chicago Center
08:06PM 41.9833 -87.5692 272° West 159 183 5,300 -840 Descending Chicago Center
08:07PM 41.9828 -87.6264 269° West 155 178 4,500 -840 Descending Chicago Center
08:08PM 41.9842 -87.6842 272° West 155 178 3,600 -900 Descending Chicago Center
08:09PM 41.9839 -87.7425 270° West 156 180 2,700 -900 Descending Chicago Center
08:10PM 41.9836 -87.8136 270° West 158 182 1,800 -720 Descending Chicago Center
08:11PM 41.9833 -87.8544 269° West 153 176 1,300 -540 Descending Chicago Center
08:13PM 41.9667 -87.9000 270° West  Level FlightAware Approximate
08:20PM 41.9817 -87.9067 270° West  Level Estimated